Location: Brabourne
(51.1333°N, 1.0000°E)
Time: 11:30:33
(UTC+00:00)

IRS-1D - Pass Details

Date: 25 October 2021
Orbit: 739 x 817 km, 98.6° (Epoch: 30 November)

Event Time Altitude Azimuth Distance (km) Brightness Sun altitude
Rises 01:39:05 0° 22° (NNE) 3,265 7.5 -44.1°
Reaches altitude 10° 01:41:44 10° 34° (NNE) 2,319 6.6 -43.8°
Enters shadow 01:42:10 12° 36° (NE) 2,176 6.4 -43.8°
